Location: Antichan
(42.9728°N, 0.6667°E)
Time: 17:56:31
(UTC+00:00)

Cosmos 405 Rocket - Pass Details

Date: 15 August 2020
Orbit: 490 x 553 km, 81.3° (Epoch: 18 September)

Event Time Altitude Azimuth Distance (km) Brightness Sun altitude
Exits shadow 20:50:29 18° 200° (SSW) 1,278 4.5 -18.4°
Maximum altitude 20:53:09 68° 281° (WNW) 542 2.9 -18.8°
Drops below altitude 10° 20:56:54 10° 5° (N) 1,724 5.8 -19.3°
Sets 20:59:04 0° 8° (N) 2,623 6.8 -19.6°
